Wetterdaten: Mittwoch, 09.09.2015
Datum Zeit Temp. A. Feuchte A. Luftdruck Regen Wind Richtung Richtung Sonnenschein ET UV Solar Taupunkt Windchill Windben Empfang
09.09.2015 00:02 7,7 C 93 % 1022,7 hPa 0,0 l/m 0,0 km/h (0 Bft) NO 50 0 min 0,000 mm 0,0 UV-I 0 W/m 6,6 C 7,7 C 0,0 km/h (0 Bft) 0,00 %
09.09.2015 00:07 7,6 C 93 % 1022,6 hPa 0,0 l/m 0,0 km/h (0 Bft) NO 51 0 min 0,000 mm 0,0 UV-I 0 W/m 6,5 C 7,6 C 0,0 km/h (0 Bft) 0,00 %
09.09.2015 00:12 7,6 C 94 % 1022,6 hPa 0,0 l/m 0,0 km/h (0 Bft) NO 51 0 min 0,000 mm 0,0 UV-I 0 W/m 6,7 C 7,6 C 0,0 km/h (0 Bft) 0,00 %
09.09.2015 00:17 7,5 C 94 % 1022,5 hPa 0,0 l/m 0,0 km/h (0 Bft) NO 52 0 min 0,000 mm 0,0 UV-I 0 W/m 6,6 C 7,5 C 0,0 km/h (0 Bft) 0,00 %
09.09.2015 00:22 7,4 C 94 % 1022,5 hPa 0,0 l/m 0,0 km/h (0 Bft) NO 44 0 min 0,000 mm 0,0 UV-I 0 W/m 6,5 C 7,4 C 0,0 km/h (0 Bft) 0,00 %
09.09.2015 00:28 7,4 C 94 % 1022,4 hPa 0,0 l/m 0,0 km/h (0 Bft) NO 45 0 min 0,000 mm 0,0 UV-I 0 W/m 6,5 C 7,4 C 0,0 km/h (0 Bft) 0,00 %
09.09.2015 00:33 7,3 C 94 % 1022,5 hPa 0,0 l/m 0,0 km/h (0 Bft) NO 47 0 min 0,000 mm 0,0 UV-I 0 W/m 6,4 C 7,3 C 0,0 km/h (0 Bft) 0,00 %
09.09.2015 00:38 7,2 C 94 % 1022,5 hPa 0,0 l/m 0,0 km/h (0 Bft) NO 54 0 min 0,000 mm 0,0 UV-I 0 W/m 6,3 C 7,2 C 0,0 km/h (0 Bft) 0,00 %
09.09.2015 00:43 7,1 C 94 % 1022,5 hPa 0,0 l/m 0,0 km/h (0 Bft) NO 54 0 min 0,000 mm 0,0 UV-I 0 W/m 6,2 C 7,1 C 0,0 km/h (0 Bft) 0,00 %
09.09.2015 00:48 7,0 C 95 % 1022,4 hPa 0,0 l/m 0,0 km/h (0 Bft) NO 49 0 min 0,000 mm 0,0 UV-I 0 W/m 6,3 C 7,0 C 0,0 km/h (0 Bft) 0,00 %
09.09.2015 00:53 7,0 C 96 % 1022,4 hPa 0,0 l/m 0,0 km/h (0 Bft) NO 51 0 min 0,000 mm 0,0 UV-I 0 W/m 6,4 C 7,0 C 0,0 km/h (0 Bft) 0,00 %
09.09.2015 00:58 7,0 C 96 % 1022,4 hPa 0,0 l/m 0,0 km/h (0 Bft) NO 51 0 min 0,000 mm 0,0 UV-I 0 W/m 6,4 C 7,0 C 0,0 km/h (0 Bft) 0,00 %
09.09.2015 01:03 6,9 C 96 % 1022,3 hPa 0,0 l/m 0,0 km/h (0 Bft) NO 51 0 min 0,000 mm 0,0 UV-I 0 W/m 6,3 C 6,9 C 0,0 km/h (0 Bft) 0,00 %
09.09.2015 01:08 6,7 C 96 % 1022,4 hPa 0,0 l/m 0,0 km/h (0 Bft) NO 37 0 min 0,000 mm 0,0 UV-I 0 W/m 6,1 C 6,7 C 0,0 km/h (0 Bft) 0,00 %
09.09.2015 01:13 6,6 C 96 % 1022,4 hPa 0,0 l/m 0,0 km/h (0 Bft) NO 41 0 min 0,000 mm 0,0 UV-I 0 W/m 6,0 C 6,6 C 0,0 km/h (0 Bft) 0,00 %
09.09.2015 01:18 6,5 C 96 % 1022,3 hPa 0,0 l/m 0,0 km/h (0 Bft) N-NO 30 0 min 0,000 mm 0,0 UV-I 0 W/m 5,9 C 6,5 C 0,0 km/h (0 Bft) 0,00 %
09.09.2015 01:23 6,4 C 97 % 1022,1 hPa 0,0 l/m 0,0 km/h (0 Bft) NO 35 0 min 0,000 mm 0,0 UV-I 0 W/m 6,0 C 6,4 C 0,0 km/h (0 Bft) 0,00 %
09.09.2015 01:28 6,3 C 97 % 1022,0 hPa 0,0 l/m 0,0 km/h (0 Bft) NO 45 0 min 0,000 mm 0,0 UV-I 0 W/m 5,9 C 6,3 C 0,0 km/h (0 Bft) 0,00 %
09.09.2015 01:33 6,3 C 97 % 1022,3 hPa 0,0 l/m 0,0 km/h (0 Bft) NO 45 0 min 0,000 mm 0,0 UV-I 0 W/m 5,9 C 6,3 C 0,0 km/h (0 Bft) 0,00 %
09.09.2015 01:38 6,2 C 97 % 1022,1 hPa 0,0 l/m 0,0 km/h (0 Bft) NO 45 0 min 0,000 mm 0,0 UV-I 0 W/m 5,8 C 6,2 C 0,0 km/h (0 Bft) 0,00 %
09.09.2015 01:43 6,2 C 97 % 1022,3 hPa 0,0 l/m 0,0 km/h (0 Bft) NO 45 0 min 0,000 mm 0,0 UV-I 0 W/m 5,8 C 6,2 C 0,0 km/h (0 Bft) 0,00 %
09.09.2015 01:48 6,1 C 97 % 1022,1 hPa 0,0 l/m 0,0 km/h (0 Bft) NO 45 0 min 0,000 mm 0,0 UV-I 0 W/m 5,7 C 6,1 C 0,0 km/h (0 Bft) 0,00 %
09.09.2015 01:53 6,1 C 97 % 1022,0 hPa 0,0 l/m 0,0 km/h (0 Bft) NO 45 0 min 0,000 mm 0,0 UV-I 0 W/m 5,7 C 6,1 C 0,0 km/h (0 Bft) 0,00 %
09.09.2015 01:58 6,1 C 97 % 1022,0 hPa 0,0 l/m 0,0 km/h (0 Bft) NO 45 0 min 0,000 mm 0,0 UV-I 0 W/m 5,7 C 6,1 C 0,0 km/h (0 Bft) 0,00 %
09.09.2015 02:03 6,1 C 97 % 1022,1 hPa 0,0 l/m 0,0 km/h (0 Bft) NO 45 0 min 0,000 mm 0,0 UV-I 0 W/m 5,7 C 6,1 C 0,0 km/h (0 Bft) 0,00 %
09.09.2015 02:08 6,1 C 97 % 1021,9 hPa 0,0 l/m 0,0 km/h (0 Bft) NO 42 0 min 0,000 mm 0,0 UV-I 0 W/m 5,7 C 6,1 C 0,0 km/h (0 Bft) 0,00 %
09.09.2015 02:13 6,1 C 98 % 1022,0 hPa 0,0 l/m 0,0 km/h (0 Bft) NO 42 0 min 0,000 mm 0,0 UV-I 0 W/m 5,8 C 6,1 C 0,0 km/h (0 Bft) 0,00 %
09.09.2015 02:18 6,0 C 98 % 1021,9 hPa 0,0 l/m 0,0 km/h (0 Bft) NO 47 0 min 0,000 mm 0,0 UV-I 0 W/m 5,7 C 6,0 C 0,0 km/h (0 Bft) 0,00 %
09.09.2015 02:23 5,9 C 98 % 1021,9 hPa 0,0 l/m 0,0 km/h (0 Bft) NO 47 0 min 0,000 mm 0,0 UV-I 0 W/m 5,6 C 5,9 C 0,0 km/h (0 Bft) 0,00 %
09.09.2015 02:28 5,8 C 98 % 1021,9 hPa 0,0 l/m 0,0 km/h (0 Bft) NO 44 0 min 0,000 mm 0,0 UV-I 0 W/m 5,5 C 5,8 C 0,0 km/h (0 Bft) 0,00 %
09.09.2015 02:33 5,7 C 98 % 1021,8 hPa 0,0 l/m 0,0 km/h (0 Bft) NO 45 0 min 0,000 mm 0,0 UV-I 0 W/m 5,4 C 5,7 C 0,0 km/h (0 Bft) 0,00 %
09.09.2015 02:38 5,7 C 98 % 1021,7 hPa 0,0 l/m 0,0 km/h (0 Bft) NO 46 0 min 0,000 mm 0,0 UV-I 0 W/m 5,4 C 5,7 C 0,0 km/h (0 Bft) 0,00 %
09.09.2015 02:43 5,6 C 98 % 1021,8 hPa 0,0 l/m 0,0 km/h (0 Bft) NO 44 0 min 0,000 mm 0,0 UV-I 0 W/m 5,3 C 5,6 C 0,0 km/h (0 Bft) 0,00 %
09.09.2015 02:48 5,6 C 98 % 1021,8 hPa 0,0 l/m 0,0 km/h (0 Bft) NO 42 0 min 0,000 mm 0,0 UV-I 0 W/m 5,3 C 5,6 C 0,0 km/h (0 Bft) 0,00 %
09.09.2015 02:53 5,5 C 98 % 1021,7 hPa 0,0 l/m 0,0 km/h (0 Bft) NO 44 0 min 0,000 mm 0,0 UV-I 0 W/m 5,2 C 5,5 C 0,0 km/h (0 Bft) 0,00 %
09.09.2015 02:58 5,5 C 98 % 1021,7 hPa 0,0 l/m 0,0 km/h (0 Bft) NO 44 0 min 0,000 mm 0,0 UV-I 0 W/m 5,2 C 5,5 C 0,0 km/h (0 Bft) 0,00 %
09.09.2015 03:03 5,4 C 98 % 1021,8 hPa 0,0 l/m 0,0 km/h (0 Bft) NO 44 0 min 0,000 mm 0,0 UV-I 0 W/m 5,1 C 5,4 C 0,0 km/h (0 Bft) 0,00 %
09.09.2015 03:08 5,4 C 98 % 1021,5 hPa 0,0 l/m 0,0 km/h (0 Bft) NO 44 0 min 0,000 mm 0,0 UV-I 0 W/m 5,1 C 5,4 C 0,0 km/h (0 Bft) 0,00 %
09.09.2015 03:13 5,4 C 98 % 1021,7 hPa 0,0 l/m 0,0 km/h (0 Bft) NO 44 0 min 0,000 mm 0,0 UV-I 0 W/m 5,1 C 5,4 C 0,0 km/h (0 Bft) 0,00 %
09.09.2015 03:18 5,4 C 98 % 1021,6 hPa 0,0 l/m 0,0 km/h (0 Bft) NO 44 0 min 0,000 mm 0,0 UV-I 0 W/m 5,1 C 5,4 C 0,0 km/h (0 Bft) 0,00 %
09.09.2015 03:23 5,4 C 98 % 1021,6 hPa 0,0 l/m 0,0 km/h (0 Bft) NO 44 0 min 0,000 mm 0,0 UV-I 0 W/m 5,1 C 5,4 C 0,0 km/h (0 Bft) 0,00 %
09.09.2015 03:28 5,4 C 98 % 1021,4 hPa 0,0 l/m 0,0 km/h (0 Bft) NO 44 0 min 0,000 mm 0,0 UV-I 0 W/m 5,1 C 5,4 C 0,0 km/h (0 Bft) 0,00 %
09.09.2015 03:33 5,3 C 98 % 1021,5 hPa 0,0 l/m 0,0 km/h (0 Bft) NO 44 0 min 0,000 mm 0,0 UV-I 0 W/m 5,0 C 5,3 C 0,0 km/h (0 Bft) 0,00 %
09.09.2015 03:38 5,3 C 98 % 1021,4 hPa 0,0 l/m 0,0 km/h (0 Bft) NO 47 0 min 0,000 mm 0,0 UV-I 0 W/m 5,0 C 5,3 C 0,0 km/h (0 Bft) 0,00 %
09.09.2015 03:43 5,3 C 98 % 1021,4 hPa 0,0 l/m 0,0 km/h (0 Bft) NO 47 0 min 0,000 mm 0,0 UV-I 0 W/m 5,0 C 5,3 C 0,0 km/h (0 Bft) 0,00 %
09.09.2015 03:48 5,3 C 98 % 1021,4 hPa 0,0 l/m 0,0 km/h (0 Bft) NO 45 0 min 0,000 mm 0,0 UV-I 0 W/m 5,0 C 5,3 C 0,0 km/h (0 Bft) 0,00 %
09.09.2015 03:53 5,3 C 98 % 1021,5 hPa 0,0 l/m 0,0 km/h (0 Bft) NO 49 0 min 0,000 mm 0,0 UV-I 0 W/m 5,0 C 5,3 C 0,0 km/h (0 Bft) 0,00 %
09.09.2015 03:58 5,3 C 98 % 1021,3 hPa 0,0 l/m 0,0 km/h (0 Bft) NO 54 0 min 0,000 mm 0,0 UV-I 0 W/m 5,0 C 5,3 C 0,0 km/h (0 Bft) 0,00 %
09.09.2015 04:03 5,3 C 98 % 1021,3 hPa 0,0 l/m 0,0 km/h (0 Bft) NO 42 0 min 0,000 mm 0,0 UV-I 0 W/m 5,0 C 5,3 C 0,0 km/h (0 Bft) 0,00 %
09.09.2015 04:08 5,3 C 98 % 1021,4 hPa 0,0 l/m 0,0 km/h (0 Bft) NO 42 0 min 0,000 mm 0,0 UV-I 0 W/m 5,0 C 5,3 C 0,0 km/h (0 Bft) 0,00 %
09.09.2015 04:13 5,3 C 98 % 1021,5 hPa 0,0 l/m 0,0 km/h (0 Bft) NO 45 0 min 0,000 mm 0,0 UV-I 0 W/m 5,0 C 5,3 C 0,0 km/h (0 Bft) 0,00 %
09.09.2015 04:18 5,3 C 98 % 1021,4 hPa 0,0 l/m 0,0 km/h (0 Bft) NO 45 0 min 0,000 mm 0,0 UV-I 0 W/m 5,0 C 5,3 C 0,0 km/h (0 Bft) 0,00 %
09.09.2015 04:23 5,4 C 98 % 1021,2 hPa 0,0 l/m 0,0 km/h (0 Bft) NO 47 0 min 0,000 mm 0,0 UV-I 0 W/m 5,1 C 5,4 C 0,0 km/h (0 Bft) 0,00 %
09.09.2015 04:28 5,4 C 98 % 1021,2 hPa 0,0 l/m 0,0 km/h (0 Bft) NO 42 0 min 0,000 mm 0,0 UV-I 0 W/m 5,1 C 5,4 C 0,0 km/h (0 Bft) 0,00 %
09.09.2015 04:33 5,5 C 98 % 1021,3 hPa 0,0 l/m 0,0 km/h (0 Bft) NO 42 0 min 0,000 mm 0,0 UV-I 0 W/m 5,2 C 5,5 C 0,0 km/h (0 Bft) 0,00 %
09.09.2015 04:38 5,5 C 98 % 1021,4 hPa 0,0 l/m 0,0 km/h (0 Bft) NO 42 0 min 0,000 mm 0,0 UV-I 0 W/m 5,2 C 5,5 C 0,0 km/h (0 Bft) 0,00 %
09.09.2015 04:43 5,6 C 97 % 1021,3 hPa 0,0 l/m 0,0 km/h (0 Bft) NO 42 0 min 0,000 mm 0,0 UV-I 0 W/m 5,2 C 5,6 C 0,0 km/h (0 Bft) 0,00 %
09.09.2015 04:48 5,7 C 97 % 1021,3 hPa 0,0 l/m 0,0 km/h (0 Bft) NO 42 0 min 0,000 mm 0,0 UV-I 0 W/m 5,3 C 5,7 C 0,0 km/h (0 Bft) 0,00 %
09.09.2015 04:53 5,8 C 97 % 1021,4 hPa 0,0 l/m 0,0 km/h (0 Bft) NO 42 0 min 0,000 mm 0,0 UV-I 0 W/m 5,4 C 5,8 C 0,0 km/h (0 Bft) 0,00 %
09.09.2015 04:58 5,9 C 97 % 1021,1 hPa 0,0 l/m 0,0 km/h (0 Bft) NO 45 0 min 0,000 mm 0,0 UV-I 0 W/m 5,5 C 5,9 C 0,0 km/h (0 Bft) 0,00 %
09.09.2015 05:03 6,0 C 97 % 1021,1 hPa 0,0 l/m 0,0 km/h (0 Bft) N-NO 32 0 min 0,000 mm 0,0 UV-I 0 W/m 5,6 C 6,0 C 0,0 km/h (0 Bft) 0,00 %
09.09.2015 05:08 6,2 C 97 % 1021,0 hPa 0,0 l/m 0,0 km/h (0 Bft) NO 50 0 min 0,000 mm 0,0 UV-I 0 W/m 5,8 C 6,2 C 0,0 km/h (0 Bft) 0,00 %
09.09.2015 05:13 6,3 C 97 % 1021,0 hPa 0,0 l/m 0,0 km/h (0 Bft) NO 53 0 min 0,000 mm 0,0 UV-I 0 W/m 5,9 C 6,3 C 0,0 km/h (0 Bft) 0,00 %
09.09.2015 05:18 6,5 C 97 % 1021,0 hPa 0,0 l/m 0,0 km/h (0 Bft) NO 50 0 min 0,000 mm 0,0 UV-I 0 W/m 6,1 C 6,5 C 0,0 km/h (0 Bft) 0,00 %
09.09.2015 05:23 6,5 C 97 % 1021,1 hPa 0,0 l/m 0,0 km/h (0 Bft) NO 49 0 min 0,000 mm 0,0 UV-I 0 W/m 6,1 C 6,5 C 0,0 km/h (0 Bft) 0,00 %
09.09.2015 05:28 6,6 C 97 % 1021,1 hPa 0,0 l/m 0,0 km/h (0 Bft) NO 48 0 min 0,000 mm 0,0 UV-I 0 W/m 6,2 C 6,6 C 0,0 km/h (0 Bft) 0,00 %
09.09.2015 05:33 6,7 C 97 % 1021,2 hPa 0,0 l/m 0,0 km/h (0 Bft) NO 40 0 min 0,000 mm 0,0 UV-I 0 W/m 6,3 C 6,7 C 0,0 km/h (0 Bft) 0,00 %
09.09.2015 05:38 6,7 C 97 % 1021,0 hPa 0,0 l/m 0,0 km/h (0 Bft) NO 43 0 min 0,000 mm 0,0 UV-I 0 W/m 6,3 C 6,7 C 0,0 km/h (0 Bft) 0,00 %
09.09.2015 05:43 6,8 C 97 % 1020,9 hPa 0,0 l/m 0,0 km/h (0 Bft) NO 36 0 min 0,000 mm 0,0 UV-I 0 W/m 6,4 C 6,8 C 0,0 km/h (0 Bft) 0,00 %
09.09.2015 05:48 6,8 C 97 % 1021,2 hPa 0,0 l/m 0,0 km/h (0 Bft) NO 43 0 min 0,000 mm 0,0 UV-I 0 W/m 6,4 C 6,8 C 0,0 km/h (0 Bft) 0,00 %
09.09.2015 05:53 6,8 C 99 % 1021,2 hPa 0,0 l/m 0,0 km/h (0 Bft) NO 44 0 min 0,000 mm 0,0 UV-I 0 W/m 6,7 C 6,8 C 0,0 km/h (0 Bft) 0,00 %
09.09.2015 05:58 6,9 C 99 % 1021,0 hPa 0,0 l/m 0,0 km/h (0 Bft) NO 44 0 min 0,000 mm 0,0 UV-I 0 W/m 6,8 C 6,9 C 0,0 km/h (0 Bft) 0,00 %
09.09.2015 06:03 6,9 C 99 % 1021,0 hPa 0,0 l/m 0,0 km/h (0 Bft) NO 44 0 min 0,000 mm 0,0 UV-I 0 W/m 6,8 C 6,9 C 0,0 km/h (0 Bft) 0,00 %
09.09.2015 06:08 6,9 C 99 % 1021,1 hPa 0,0 l/m 0,0 km/h (0 Bft) NO 44 0 min 0,000 mm 0,0 UV-I 0 W/m 6,8 C 6,9 C 0,0 km/h (0 Bft) 0,00 %
09.09.2015 06:13 6,9 C 99 % 1021,1 hPa 0,0 l/m 0,0 km/h (0 Bft) NO 44 0 min 0,000 mm 0,0 UV-I 0 W/m 6,8 C 6,9 C 0,0 km/h (0 Bft) 0,00 %
09.09.2015 06:18 6,9 C 99 % 1021,1 hPa 0,0 l/m 0,0 km/h (0 Bft) NO 45 0 min 0,000 mm 0,0 UV-I 0 W/m 6,8 C 6,9 C 0,0 km/h (0 Bft) 0,00 %
09.09.2015 06:23 7,0 C 99 % 1021,1 hPa 0,0 l/m 0,0 km/h (0 Bft) N-NO 33 0 min 0,000 mm 0,0 UV-I 0 W/m 6,9 C 7,0 C 0,0 km/h (0 Bft) 0,00 %
09.09.2015 06:28 7,1 C 99 % 1021,1 hPa 0,0 l/m 0,0 km/h (0 Bft) NO 43 0 min 0,000 mm 0,0 UV-I 0 W/m 7,0 C 7,1 C 0,0 km/h (0 Bft) 0,00 %
09.09.2015 06:33 7,2 C 99 % 1021,1 hPa 0,0 l/m 0,0 km/h (0 Bft) NO 53 0 min 0,000 mm 0,0 UV-I 0 W/m 7,1 C 7,2 C 0,0 km/h (0 Bft) 0,00 %
09.09.2015 06:38 7,3 C 99 % 1021,1 hPa 0,0 l/m 0,0 km/h (0 Bft) O-NO 60 0 min 0,000 mm 0,0 UV-I 0 W/m 7,2 C 7,3 C 0,0 km/h (0 Bft) 0,00 %
09.09.2015 06:43 7,3 C 99 % 1021,1 hPa 0,0 l/m 0,0 km/h (0 Bft) NO 55 0 min 0,000 mm 0,0 UV-I 0 W/m 7,2 C 7,3 C 0,0 km/h (0 Bft) 0,00 %
09.09.2015 06:48 7,3 C 99 % 1021,2 hPa 0,0 l/m 0,0 km/h (0 Bft) NO 50 0 min 0,000 mm 0,0 UV-I 0 W/m 7,2 C 7,3 C 0,0 km/h (0 Bft) 0,00 %
09.09.2015 06:53 7,3 C 99 % 1021,1 hPa 0,0 l/m 0,0 km/h (0 Bft) NO 55 0 min 0,000 mm 0,0 UV-I 0 W/m 7,2 C 7,3 C 0,0 km/h (0 Bft) 0,00 %
09.09.2015 06:58 7,3 C 99 % 1021,2 hPa 0,0 l/m 0,0 km/h (0 Bft) NO 52 0 min 0,000 mm 0,0 UV-I 0 W/m 7,2 C 7,3 C 0,0 km/h (0 Bft) 0,00 %
09.09.2015 07:03 7,3 C 99 % 1021,2 hPa 0,0 l/m 0,0 km/h (0 Bft) O-NO 68 0 min 0,000 mm 0,0 UV-I 0 W/m 7,2 C 7,3 C 0,0 km/h (0 Bft) 0,00 %
09.09.2015 07:08 7,4 C 99 % 1021,0 hPa 0,0 l/m 0,0 km/h (0 Bft) NO 53 0 min 0,000 mm 0,0 UV-I 0 W/m 7,3 C 7,4 C 0,0 km/h (0 Bft) 0,00 %
09.09.2015 07:13 7,4 C 99 % 1021,2 hPa 0,0 l/m 0,0 km/h (0 Bft) NO 47 0 min 0,000 mm 0,0 UV-I 4 W/m 7,3 C 7,4 C 0,0 km/h (0 Bft) 0,00 %
09.09.2015 07:18 7,5 C 99 % 1021,3 hPa 0,0 l/m 0,0 km/h (0 Bft) NO 48 0 min 0,000 mm 0,0 UV-I 6 W/m 7,4 C 7,5 C 0,0 km/h (0 Bft) 0,00 %
09.09.2015 07:23 7,5 C 99 % 1021,2 hPa 0,0 l/m 0,0 km/h (0 Bft) O-NO 60 0 min 0,000 mm 0,0 UV-I 10 W/m 7,4 C 7,5 C 0,0 km/h (0 Bft) 0,00 %
09.09.2015 07:28 7,6 C 99 % 1021,2 hPa 0,0 l/m 0,0 km/h (0 Bft) NO 44 0 min 0,000 mm 0,0 UV-I 17 W/m 7,5 C 7,6 C 0,0 km/h (0 Bft) 0,00 %
09.09.2015 07:33 7,6 C 99 % 1021,2 hPa 0,0 l/m 0,0 km/h (0 Bft) NO 45 0 min 0,000 mm 0,0 UV-I 19 W/m 7,5 C 7,6 C 0,0 km/h (0 Bft) 0,00 %
09.09.2015 07:38 7,7 C 99 % 1020,9 hPa 0,0 l/m 0,0 km/h (0 Bft) NO 49 0 min 0,000 mm 0,0 UV-I 28 W/m 7,6 C 7,7 C 0,0 km/h (0 Bft) 0,00 %
09.09.2015 07:43 7,8 C 99 % 1020,9 hPa 0,0 l/m 0,0 km/h (0 Bft) NO 45 0 min 0,000 mm 0,0 UV-I 36 W/m 7,7 C 7,8 C 0,0 km/h (0 Bft) 0,00 %
09.09.2015 07:48 7,9 C 99 % 1021,1 hPa 0,0 l/m 0,0 km/h (0 Bft) NO 45 0 min 0,000 mm 0,0 UV-I 41 W/m 7,8 C 7,9 C 0,0 km/h (0 Bft) 0,00 %
09.09.2015 07:53 8,0 C 99 % 1021,1 hPa 0,0 l/m 0,0 km/h (0 Bft) NO 45 0 min 0,000 mm 0,0 UV-I 43 W/m 7,9 C 8,0 C 0,0 km/h (0 Bft) 0,00 %
09.09.2015 07:58 8,2 C 99 % 1021,0 hPa 0,0 l/m 0,0 km/h (0 Bft) NO 50 0 min 0,000 mm 0,0 UV-I 47 W/m 8,1 C 8,2 C 0,0 km/h (0 Bft) 0,00 %
09.09.2015 08:03 8,3 C 99 % 1020,9 hPa 0,0 l/m 0,0 km/h (0 Bft) NO 50 0 min 0,000 mm 0,0 UV-I 55 W/m 8,2 C 8,3 C 0,0 km/h (0 Bft) 0,00 %
09.09.2015 08:08 8,4 C 99 % 1020,8 hPa 0,0 l/m 0,0 km/h (0 Bft) NO 40 0 min 0,000 mm 0,0 UV-I 80 W/m 8,3 C 8,4 C 0,0 km/h (0 Bft) 0,00 %
09.09.2015 08:13 8,5 C 99 % 1020,5 hPa 0,0 l/m 0,0 km/h (0 Bft) NO 37 0 min 0,000 mm 0,0 UV-I 94 W/m 8,4 C 8,5 C 0,0 km/h (0 Bft) 0,00 %
09.09.2015 08:18 8,7 C 99 % 1020,5 hPa 0,0 l/m 0,0 km/h (0 Bft) NO 55 0 min 0,000 mm 0,0 UV-I 106 W/m 8,6 C 8,7 C 0,0 km/h (0 Bft) 0,00 %
09.09.2015 08:23 9,0 C 99 % 1020,4 hPa 0,0 l/m 0,0 km/h (0 Bft) NO 47 0 min 0,000 mm 0,0 UV-I 116 W/m 8,9 C 9,0 C 0,0 km/h (0 Bft) 0,00 %
09.09.2015 08:28 9,3 C 99 % 1020,7 hPa 0,0 l/m 0,0 km/h (0 Bft) NO 49 0 min 0,000 mm 1,0 UV-I 132 W/m 9,2 C 9,3 C 0,0 km/h (0 Bft) 0,00 %
09.09.2015 08:33 9,5 C 99 % 1020,4 hPa 0,0 l/m 0,0 km/h (0 Bft) NO 47 0 min 0,000 mm 1,0 UV-I 151 W/m 9,4 C 9,5 C 0,0 km/h (0 Bft) 0,00 %
09.09.2015 08:38 9,7 C 97 % 1020,3 hPa 0,0 l/m 0,0 km/h (0 Bft) NO 48 0 min 0,000 mm 1,0 UV-I 168 W/m 9,2 C 9,7 C 0,0 km/h (0 Bft) 0,00 %
09.09.2015 08:43 10,0 C 95 % 1020,3 hPa 0,0 l/m 0,0 km/h (0 Bft) O-NO 74 0 min 0,000 mm 1,0 UV-I 174 W/m 9,2 C 10,0 C 0,0 km/h (0 Bft) 0,00 %
09.09.2015 08:48 10,3 C 92 % 1020,0 hPa 0,0 l/m 0,0 km/h (0 Bft) O-NO 57 0 min 0,000 mm 1,0 UV-I 170 W/m 9,1 C 10,3 C 0,0 km/h (0 Bft) 0,00 %
09.09.2015 08:53 10,6 C 87 % 1021,2 hPa 0,0 l/m 0,0 km/h (0 Bft) O-NO 59 0 min 0,000 mm 1,0 UV-I 159 W/m 8,5 C 10,6 C 0,0 km/h (0 Bft) 0,00 %
09.09.2015 08:58 10,9 C 81 % 1021,2 hPa 0,0 l/m 0,0 km/h (0 Bft) NO 42 0 min 0,000 mm 1,0 UV-I 157 W/m 7,8 C 10,9 C 0,0 km/h (0 Bft) 0,00 %
09.09.2015 09:03 11,3 C 78 % 1021,1 hPa 0,0 l/m 0,4 km/h (0 Bft) O-NO 73 0 min 0,000 mm 1,0 UV-I 147 W/m 7,6 C 11,3 C 4,0 km/h (1 Bft) 0,00 %
09.09.2015 09:08 11,7 C 71 % 1021,2 hPa 0,0 l/m 0,0 km/h (0 Bft) NO 48 0 min 0,000 mm 1,0 UV-I 166 W/m 6,6 C 11,7 C 0,0 km/h (0 Bft) 0,00 %
09.09.2015 09:13 12,0 C 68 % 1021,1 hPa 0,0 l/m 0,0 km/h (0 Bft) O-SO 106 0 min 0,000 mm 1,0 UV-I 167 W/m 6,3 C 12,0 C 0,0 km/h (0 Bft) 0,00 %
09.09.2015 09:18 12,4 C 69 % 1021,1 hPa 0,0 l/m 0,0 km/h (0 Bft) O-NO 67 0 min 0,000 mm 1,0 UV-I 197 W/m 6,9 C 12,4 C 0,0 km/h (0 Bft) 0,00 %
09.09.2015 09:23 13,0 C 63 % 1021,2 hPa 0,0 l/m 0,0 km/h (0 Bft) O-NO 59 0 min 0,000 mm 1,0 UV-I 174 W/m 6,1 C 13,0 C 0,0 km/h (0 Bft) 0,00 %
09.09.2015 09:28 13,5 C 63 % 1021,3 hPa 0,0 l/m 0,0 km/h (0 Bft) O 94 0 min 0,000 mm 1,0 UV-I 137 W/m 6,6 C 13,5 C 0,0 km/h (0 Bft) 0,00 %
09.09.2015 09:33 13,8 C 64 % 1021,2 hPa 0,0 l/m 0,0 km/h (0 Bft) O-NO 59 0 min 0,000 mm 1,0 UV-I 137 W/m 7,1 C 13,8 C 0,0 km/h (0 Bft) 0,00 %
09.09.2015 09:38 13,7 C 63 % 1021,3 hPa 0,0 l/m 0,0 km/h (0 Bft) NO 36 0 min 0,000 mm 1,0 UV-I 139 W/m 6,8 C 13,7 C 0,0 km/h (0 Bft) 0,00 %
09.09.2015 09:43 13,4 C 64 % 1021,2 hPa 0,0 l/m 0,0 km/h (0 Bft) O-NO 64 0 min 0,000 mm 1,0 UV-I 141 W/m 6,7 C 13,4 C 0,0 km/h (0 Bft) 0,00 %
09.09.2015 09:48 13,2 C 64 % 1021,3 hPa 0,0 l/m 0,0 km/h (0 Bft) O-NO 61 0 min 0,000 mm 1,0 UV-I 249 W/m 6,5 C 13,2 C 0,0 km/h (0 Bft) 0,00 %
09.09.2015 09:53 13,2 C 62 % 1021,3 hPa 0,0 l/m 0,0 km/h (0 Bft) O 98 0 min 0,000 mm 1,0 UV-I 153 W/m 6,1 C 13,2 C 0,0 km/h (0 Bft) 0,00 %
09.09.2015 09:58 13,3 C 65 % 1021,3 hPa 0,0 l/m 0,0 km/h (0 Bft) O-NO 62 0 min 0,000 mm 1,0 UV-I 162 W/m 6,9 C 13,3 C 0,0 km/h (0 Bft) 0,00 %
09.09.2015 10:03 13,0 C 66 % 1021,6 hPa 0,0 l/m 0,0 km/h (0 Bft) NO 42 0 min 0,000 mm 1,0 UV-I 155 W/m 6,8 C 13,0 C 0,0 km/h (0 Bft) 0,00 %
09.09.2015 10:08 12,6 C 68 % 1021,4 hPa 0,0 l/m 0,0 km/h (0 Bft) N-NO 26 0 min 0,000 mm 1,0 UV-I 170 W/m 6,9 C 12,6 C 0,0 km/h (0 Bft) 0,00 %
09.09.2015 10:13 12,4 C 70 % 1021,6 hPa 0,0 l/m 0,0 km/h (0 Bft) NO 34 0 min 0,000 mm 1,0 UV-I 192 W/m 7,1 C 12,4 C 0,0 km/h (0 Bft) 0,00 %
09.09.2015 10:18 12,2 C 70 % 1021,6 hPa 0,0 l/m 0,0 km/h (0 Bft) NO 49 0 min 0,000 mm 1,0 UV-I 215 W/m 6,9 C 12,2 C 0,0 km/h (0 Bft) 0,00 %
09.09.2015 10:23 12,2 C 70 % 1021,7 hPa 0,0 l/m 0,4 km/h (0 Bft) O-NO 77 0 min 0,000 mm 1,0 UV-I 258 W/m 6,9 C 12,2 C 4,0 km/h (1 Bft) 0,00 %
09.09.2015 10:28 12,4 C 70 % 1021,6 hPa 0,0 l/m 0,4 km/h (0 Bft) N-NW 330 0 min 0,000 mm 1,0 UV-I 270 W/m 7,1 C 12,4 C 4,0 km/h (1 Bft) 0,00 %
09.09.2015 10:33 12,5 C 72 % 1021,8 hPa 0,0 l/m 0,0 km/h (0 Bft) O-NO 68 0 min 0,000 mm 1,0 UV-I 290 W/m 7,6 C 12,5 C 0,0 km/h (0 Bft) 0,00 %
09.09.2015 10:38 12,8 C 69 % 1021,9 hPa 0,0 l/m 0,0 km/h (0 Bft) O-NO 60 0 min 0,000 mm 1,0 UV-I 300 W/m 7,3 C 12,8 C 0,0 km/h (0 Bft) 0,00 %
09.09.2015 10:43 13,1 C 68 % 1021,7 hPa 0,0 l/m 0,0 km/h (0 Bft) O-NO 64 0 min 0,000 mm 2,0 UV-I 321 W/m 7,3 C 13,1 C 0,0 km/h (0 Bft) 0,00 %
09.09.2015 10:48 13,5 C 66 % 1021,8 hPa 0,0 l/m 0,0 km/h (0 Bft) NO 37 5 min 0,000 mm 2,0 UV-I 372 W/m 7,3 C 13,5 C 0,0 km/h (0 Bft) 0,00 %
09.09.2015 10:53 13,9 C 65 % 1021,5 hPa 0,0 l/m 0,4 km/h (0 Bft) NO 42 5 min 0,000 mm 2,0 UV-I 396 W/m 7,4 C 13,9 C 4,0 km/h (1 Bft) 0,00 %
09.09.2015 10:58 14,4 C 64 % 1021,5 hPa 0,0 l/m 0,4 km/h (0 Bft) O-SO 114 5 min 0,000 mm 2,0 UV-I 395 W/m 7,7 C 14,4 C 4,0 km/h (1 Bft) 0,00 %
09.09.2015 11:03 14,9 C 62 % 1021,4 hPa 0,0 l/m 0,0 km/h (0 Bft) O-NO 69 5 min 0,000 mm 2,0 UV-I 389 W/m 7,7 C 14,9 C 0,0 km/h (0 Bft) 0,00 %
09.09.2015 11:08 15,2 C 62 % 1021,6 hPa 0,0 l/m 1,8 km/h (1 Bft) O 89 5 min 0,000 mm 2,0 UV-I 371 W/m 8,0 C 15,2 C 4,0 km/h (1 Bft) 0,00 %
09.09.2015 11:13 15,3 C 59 % 1021,6 hPa 0,0 l/m 0,0 km/h (0 Bft) N-NO 30 0 min 0,000 mm 1,0 UV-I 317 W/m 7,3 C 15,3 C 0,0 km/h (0 Bft) 0,00 %
09.09.2015 11:18 15,5 C 59 % 1021,7 hPa 0,0 l/m 0,0 km/h (0 Bft) NO 53 0 min 0,000 mm 1,0 UV-I 312 W/m 7,5 C 15,5 C 0,0 km/h (0 Bft) 0,00 %
09.09.2015 11:23 15,7 C 55 % 1021,5 hPa 0,0 l/m 0,0 km/h (0 Bft) O-SO 123 5 min 0,000 mm 2,0 UV-I 375 W/m 6,7 C 15,7 C 0,0 km/h (0 Bft) 0,00 %
09.09.2015 11:28 15,7 C 55 % 1021,4 hPa 0,0 l/m 0,0 km/h (0 Bft) N-NO 31 0 min 0,000 mm 2,0 UV-I 372 W/m 6,7 C 15,7 C 0,0 km/h (0 Bft) 0,00 %
09.09.2015 11:33 15,9 C 53 % 1021,4 hPa 0,0 l/m 1,8 km/h (1 Bft) O 85 0 min 0,000 mm 1,0 UV-I 339 W/m 6,3 C 15,9 C 4,0 km/h (1 Bft) 0,00 %
09.09.2015 11:38 16,1 C 52 % 1021,5 hPa 0,0 l/m 0,7 km/h (0 Bft) O 101 0 min 0,000 mm 1,0 UV-I 314 W/m 6,2 C 16,1 C 4,0 km/h (1 Bft) 0,00 %
09.09.2015 11:43 16,0 C 55 % 1021,8 hPa 0,0 l/m 0,7 km/h (0 Bft) NO 38 0 min 0,000 mm 1,0 UV-I 308 W/m 7,0 C 16,0 C 4,0 km/h (1 Bft) 0,00 %
09.09.2015 11:48 15,8 C 54 % 1021,4 hPa 0,0 l/m 0,4 km/h (0 Bft) O 94 0 min 0,000 mm 1,0 UV-I 319 W/m 6,5 C 15,8 C 4,0 km/h (1 Bft) 0,00 %
09.09.2015 11:53 15,7 C 55 % 1021,4 hPa 0,0 l/m 0,4 km/h (0 Bft) O 82 0 min 0,000 mm 2,0 UV-I 350 W/m 6,7 C 15,7 C 4,0 km/h (1 Bft) 0,00 %
09.09.2015 11:58 15,7 C 55 % 1021,6 hPa 0,0 l/m 0,0 km/h (0 Bft) NO 47 0 min 0,000 mm 2,0 UV-I 378 W/m 6,7 C 15,7 C 0,0 km/h (0 Bft) 0,00 %
09.09.2015 12:03 15,8 C 53 % 1021,5 hPa 0,0 l/m 1,4 km/h (1 Bft) O-NO 69 5 min 0,000 mm 2,0 UV-I 425 W/m 6,2 C 15,8 C 4,0 km/h (1 Bft) 0,00 %
09.09.2015 12:08 16,0 C 54 % 1021,6 hPa 0,0 l/m 1,8 km/h (1 Bft) N-NO 22 5 min 0,000 mm 3,0 UV-I 824 W/m 6,7 C 16,0 C 4,0 km/h (1 Bft) 0,00 %
09.09.2015 12:13 16,4 C 51 % 1021,7 hPa 0,0 l/m 1,4 km/h (1 Bft) NO 46 5 min 0,000 mm 2,0 UV-I 644 W/m 6,2 C 16,4 C 4,0 km/h (1 Bft) 0,00 %
09.09.2015 12:18 16,7 C 51 % 1021,5 hPa 0,0 l/m 2,9 km/h (1 Bft) NO 40 5 min 0,000 mm 2,0 UV-I 425 W/m 6,5 C 16,7 C 4,0 km/h (1 Bft) 0,00 %
09.09.2015 12:23 16,6 C 52 % 1021,7 hPa 0,0 l/m 0,0 km/h (0 Bft) NO 41 0 min 0,000 mm 2,0 UV-I 338 W/m 6,7 C 16,6 C 0,0 km/h (0 Bft) 0,00 %
09.09.2015 12:28 16,5 C 53 % 1021,6 hPa 0,0 l/m 1,8 km/h (1 Bft) N 356 0 min 0,000 mm 1,0 UV-I 305 W/m 6,9 C 16,5 C 4,0 km/h (1 Bft) 0,00 %
09.09.2015 12:33 16,4 C 54 % 1021,7 hPa 0,0 l/m 0,0 km/h (0 Bft) O-NO 70 0 min 0,000 mm 2,0 UV-I 352 W/m 7,1 C 16,4 C 0,0 km/h (0 Bft) 0,00 %
09.09.2015 12:38 16,3 C 53 % 1021,5 hPa 0,0 l/m 0,7 km/h (0 Bft) N 349 5 min 0,000 mm 2,0 UV-I 417 W/m 6,7 C 16,3 C 4,0 km/h (1 Bft) 0,00 %
09.09.2015 12:43 16,5 C 50 % 1021,5 hPa 0,0 l/m 1,4 km/h (1 Bft) N 349 0 min 0,000 mm 2,0 UV-I 390 W/m 6,0 C 16,5 C 4,0 km/h (1 Bft) 0,00 %
09.09.2015 12:48 16,7 C 49 % 1021,4 hPa 0,0 l/m 9,7 km/h (2 Bft) O 97 5 min 0,000 mm 3,0 UV-I 744 W/m 5,9 C 15,1 C 11,9 km/h (2 Bft) 0,00 %
09.09.2015 12:53 16,8 C 49 % 1021,4 hPa 0,0 l/m 6,8 km/h (2 Bft) O-NO 73 5 min 0,000 mm 3,0 UV-I 822 W/m 6,0 C 16,6 C 7,9 km/h (2 Bft) 0,00 %
09.09.2015 12:58 16,9 C 47 % 1021,6 hPa 0,0 l/m 0,0 km/h (0 Bft) NO 36 5 min 0,000 mm 2,0 UV-I 475 W/m 5,5 C 16,9 C 0,0 km/h (0 Bft) 0,00 %
09.09.2015 13:03 16,9 C 48 % 1021,6 hPa 0,0 l/m 4,3 km/h (1 Bft) O-NO 78 5 min 0,000 mm 2,0 UV-I 557 W/m 5,8 C 16,9 C 7,9 km/h (2 Bft) 0,00 %
09.09.2015 13:08 16,7 C 50 % 1021,5 hPa 0,0 l/m 6,8 km/h (2 Bft) N 357 0 min 0,000 mm 1,0 UV-I 263 W/m 6,2 C 16,5 C 7,9 km/h (2 Bft) 0,00 %
09.09.2015 13:13 16,4 C 56 % 1021,5 hPa 0,0 l/m 5,4 km/h (1 Bft) N-NO 26 0 min 0,000 mm 1,0 UV-I 267 W/m 7,6 C 16,4 C 7,9 km/h (2 Bft) 0,00 %
09.09.2015 13:18 16,0 C 59 % 1021,6 hPa 0,0 l/m 4,0 km/h (1 Bft) N-NO 28 0 min 0,000 mm 1,0 UV-I 257 W/m 8,0 C 16,0 C 11,9 km/h (2 Bft) 0,00 %
09.09.2015 13:23 15,4 C 60 % 1021,5 hPa 0,0 l/m 4,7 km/h (1 Bft) O-NO 61 5 min 0,000 mm 2,0 UV-I 406 W/m 7,7 C 15,4 C 7,9 km/h (2 Bft) 0,00 %
09.09.2015 13:28 15,3 C 60 % 1021,6 hPa 0,0 l/m 7,9 km/h (2 Bft) O-NO 76 0 min 0,000 mm 2,0 UV-I 346 W/m 7,6 C 14,5 C 11,9 km/h (2 Bft) 0,00 %
09.09.2015 13:33 15,4 C 60 % 1021,7 hPa 0,0 l/m 5,4 km/h (1 Bft) O-SO 106 0 min 0,000 mm 2,0 UV-I 300 W/m 7,7 C 15,4 C 7,9 km/h (2 Bft) 0,00 %
09.09.2015 13:38 15,5 C 59 % 1021,7 hPa 0,0 l/m 1,4 km/h (1 Bft) N 5 0 min 0,000 mm 2,0 UV-I 323 W/m 7,5 C 15,5 C 4,0 km/h (1 Bft) 0,00 %
09.09.2015 13:43 15,5 C 60 % 1021,7 hPa 0,0 l/m 8,3 km/h (2 Bft) O 90 0 min 0,000 mm 1,0 UV-I 285 W/m 7,8 C 14,5 C 15,8 km/h (3 Bft) 0,00 %
09.09.2015 13:48 15,4 C 60 % 1021,8 hPa 0,0 l/m 1,4 km/h (1 Bft) O-NO 58 0 min 0,000 mm 1,0 UV-I 260 W/m 7,7 C 15,4 C 4,0 km/h (1 Bft) 0,00 %
09.09.2015 13:53 15,3 C 60 % 1021,8 hPa 0,0 l/m 0,0 km/h (0 Bft) NO 36 0 min 0,000 mm 1,0 UV-I 248 W/m 7,6 C 15,3 C 0,0 km/h (0 Bft) 0,00 %
09.09.2015 13:58 15,3 C 59 % 1021,9 hPa 0,0 l/m 1,8 km/h (1 Bft) N-NO 24 0 min 0,000 mm 1,0 UV-I 237 W/m 7,3 C 15,3 C 4,0 km/h (1 Bft) 0,00 %
09.09.2015 14:03 15,2 C 60 % 1021,7 hPa 0,0 l/m 4,0 km/h (1 Bft) O 101 0 min 0,000 mm 1,0 UV-I 239 W/m 7,5 C 15,2 C 7,9 km/h (2 Bft) 0,00 %
09.09.2015 14:08 15,1 C 61 % 1022,0 hPa 0,0 l/m 7,9 km/h (2 Bft) O 97 0 min 0,000 mm 1,0 UV-I 247 W/m 7,6 C 14,3 C 11,9 km/h (2 Bft) 0,00 %
09.09.2015 14:13 15,0 C 61 % 1021,9 hPa 0,0 l/m 0,4 km/h (0 Bft) N-NW 327 0 min 0,000 mm 1,0 UV-I 240 W/m 7,5 C 15,0 C 4,0 km/h (1 Bft) 0,00 %
09.09.2015 14:18 14,8 C 61 % 1022,0 hPa 0,0 l/m 7,2 km/h (2 Bft) O-SO 122 0 min 0,000 mm 1,0 UV-I 248 W/m 7,4 C 14,3 C 11,9 km/h (2 Bft) 0,00 %
09.09.2015 14:23 14,7 C 61 % 1021,8 hPa 0,0 l/m 5,4 km/h (1 Bft) O-SO 108 0 min 0,000 mm 1,0 UV-I 244 W/m 7,3 C 14,7 C 7,9 km/h (2 Bft) 0,00 %
09.09.2015 14:28 14,4 C 62 % 1021,8 hPa 0,0 l/m 7,2 km/h (2 Bft) O-NO 70 0 min 0,000 mm 1,0 UV-I 234 W/m 7,2 C 13,9 C 11,9 km/h (2 Bft) 0,00 %
09.09.2015 14:33 14,2 C 62 % 1021,8 hPa 0,0 l/m 5,8 km/h (2 Bft) O-SO 105 0 min 0,000 mm 1,0 UV-I 240 W/m 7,0 C 14,2 C 7,9 km/h (2 Bft) 0,00 %
09.09.2015 14:38 14,1 C 62 % 1021,9 hPa 0,0 l/m 0,4 km/h (0 Bft) O 92 0 min 0,000 mm 1,0 UV-I 258 W/m 6,9 C 14,1 C 4,0 km/h (1 Bft) 0,00 %
09.09.2015 14:43 14,1 C 63 % 1021,8 hPa 0,0 l/m 10,4 km/h (2 Bft) O-SO 119 0 min 0,000 mm 1,0 UV-I 272 W/m 7,2 C 11,9 C 15,8 km/h (3 Bft) 0,00 %
09.09.2015 14:48 14,1 C 61 % 1021,8 hPa 0,0 l/m 9,7 km/h (2 Bft) O 101 0 min 0,000 mm 1,0 UV-I 337 W/m 6,7 C 12,3 C 15,8 km/h (3 Bft) 0,00 %
09.09.2015 14:53 14,2 C 61 % 1021,8 hPa 0,0 l/m 9,0 km/h (2 Bft) O-SO 114 0 min 0,000 mm 2,0 UV-I 339 W/m 6,8 C 12,7 C 15,8 km/h (3 Bft) 0,00 %
09.09.2015 14:58 14,2 C 63 % 1021,8 hPa 0,0 l/m 5,4 km/h (1 Bft) NO 43 5 min 0,000 mm 2,0 UV-I 376 W/m 7,3 C 14,2 C 7,9 km/h (2 Bft) 0,00 %
09.09.2015 15:03 14,4 C 62 % 1021,8 hPa 0,0 l/m 2,2 km/h (1 Bft) S-SW 204 5 min 0,000 mm 2,0 UV-I 391 W/m 7,2 C 14,4 C 4,0 km/h (1 Bft) 0,00 %
09.09.2015 15:08 14,5 C 61 % 1021,8 hPa 0,0 l/m 7,2 km/h (2 Bft) O-NO 77 5 min 0,000 mm 2,0 UV-I 390 W/m 7,1 C 14,0 C 11,9 km/h (2 Bft) 0,00 %
09.09.2015 15:13 14,4 C 62 % 1021,8 hPa 0,0 l/m 9,7 km/h (2 Bft) O-SO 103 0 min 0,000 mm 1,0 UV-I 285 W/m 7,2 C 12,6 C 15,8 km/h (3 Bft) 0,00 %
09.09.2015 15:18 14,2 C 61 % 1021,8 hPa 0,0 l/m 5,4 km/h (1 Bft) O-NO 67 0 min 0,000 mm 1,0 UV-I 275 W/m 6,8 C 14,2 C 7,9 km/h (2 Bft) 0,00 %
09.09.2015 15:23 14,0 C 61 % 1021,8 hPa 0,0 l/m 9,7 km/h (2 Bft) O-SO 109 0 min 0,000 mm 1,0 UV-I 272 W/m 6,6 C 12,2 C 11,9 km/h (2 Bft) 0,00 %
09.09.2015 15:28 13,9 C 61 % 1021,8 hPa 0,0 l/m 2,2 km/h (1 Bft) NO 41 0 min 0,000 mm 1,0 UV-I 251 W/m 6,5 C 13,9 C 4,0 km/h (1 Bft) 0,00 %
09.09.2015 15:33 13,9 C 61 % 1021,8 hPa 0,0 l/m 4,7 km/h (1 Bft) SO 133 0 min 0,000 mm 1,0 UV-I 263 W/m 6,5 C 13,9 C 7,9 km/h (2 Bft) 0,00 %
09.09.2015 15:38 13,9 C 61 % 1021,8 hPa 0,0 l/m 4,0 km/h (1 Bft) O-SO 107 0 min 0,000 mm 1,0 UV-I 223 W/m 6,5 C 13,9 C 7,9 km/h (2 Bft) 0,00 %
09.09.2015 15:43 13,8 C 62 % 1022,1 hPa 0,0 l/m 2,2 km/h (1 Bft) NO 36 0 min 0,000 mm 1,0 UV-I 248 W/m 6,6 C 13,8 C 4,0 km/h (1 Bft) 0,00 %
09.09.2015 15:48 13,8 C 61 % 1021,9 hPa 0,0 l/m 13,3 km/h (3 Bft) O-NO 69 0 min 0,000 mm 1,0 UV-I 247 W/m 6,4 C 10,4 C 19,8 km/h (3 Bft) 0,00 %
09.09.2015 15:53 13,8 C 61 % 1021,8 hPa 0,0 l/m 6,8 km/h (2 Bft) O-SO 121 0 min 0,000 mm 1,0 UV-I 259 W/m 6,4 C 13,6 C 11,9 km/h (2 Bft) 0,00 %
09.09.2015 15:58 13,7 C 61 % 1021,9 hPa 0,0 l/m 5,4 km/h (1 Bft) S 174 0 min 0,000 mm 1,0 UV-I 246 W/m 6,3 C 13,7 C 7,9 km/h (2 Bft) 0,00 %
09.09.2015 16:03 13,8 C 62 % 1021,8 hPa 0,0 l/m 0,4 km/h (0 Bft) N-NW 344 0 min 0,000 mm 1,0 UV-I 260 W/m 6,6 C 13,8 C 4,0 km/h (1 Bft) 0,00 %
09.09.2015 16:08 13,9 C 60 % 1021,9 hPa 0,0 l/m 7,9 km/h (2 Bft) O-SO 118 0 min 0,000 mm 1,0 UV-I 254 W/m 6,3 C 13,0 C 15,8 km/h (3 Bft) 0,00 %
09.09.2015 16:13 14,0 C 60 % 1021,9 hPa 0,0 l/m 11,9 km/h (2 Bft) SO 132 0 min 0,000 mm 1,0 UV-I 263 W/m 6,4 C 11,2 C 15,8 km/h (3 Bft) 0,00 %
09.09.2015 16:18 14,0 C 61 % 1021,9 hPa 0,0 l/m 4,3 km/h (1 Bft) O-SO 118 0 min 0,000 mm 1,0 UV-I 271 W/m 6,6 C 14,0 C 7,9 km/h (2 Bft) 0,00 %
09.09.2015 16:23 13,8 C 58 % 1021,6 hPa 0,0 l/m 1,8 km/h (1 Bft) O-SO 119 5 min 0,000 mm 1,0 UV-I 278 W/m 5,7 C 13,8 C 4,0 km/h (1 Bft) 0,00 %
09.09.2015 16:28 13,8 C 58 % 1021,6 hPa 0,0 l/m 9,0 km/h (2 Bft) S 184 5 min 0,000 mm 1,0 UV-I 278 W/m 5,7 C 12,3 C 11,9 km/h (2 Bft) 0,00 %
09.09.2015 16:33 13,9 C 57 % 1021,7 hPa 0,0 l/m 5,4 km/h (1 Bft) SO 142 0 min 0,000 mm 1,0 UV-I 242 W/m 5,5 C 13,9 C 7,9 km/h (2 Bft) 0,00 %
09.09.2015 16:38 14,1 C 58 % 1021,8 hPa 0,0 l/m 7,2 km/h (2 Bft) O 87 0 min 0,000 mm 1,0 UV-I 234 W/m 6,0 C 13,6 C 11,9 km/h (2 Bft) 0,00 %
09.09.2015 16:43 14,3 C 59 % 1021,7 hPa 0,0 l/m 6,5 km/h (2 Bft) S 172 0 min 0,000 mm 1,0 UV-I 224 W/m 6,4 C 14,3 C 7,9 km/h (2 Bft) 0,00 %
09.09.2015 16:48 14,2 C 60 % 1021,8 hPa 0,0 l/m 9,0 km/h (2 Bft) O-NO 76 0 min 0,000 mm 1,0 UV-I 207 W/m 6,5 C 12,7 C 11,9 km/h (2 Bft) 0,00 %
09.09.2015 16:53 14,0 C 60 % 1021,9 hPa 0,0 l/m 0,0 km/h (0 Bft) N-NO 19 0 min 0,000 mm 1,0 UV-I 202 W/m 6,4 C 14,0 C 0,0 km/h (0 Bft) 0,00 %
09.09.2015 16:58 13,9 C 61 % 1021,8 hPa 0,0 l/m 4,3 km/h (1 Bft) O 86 5 min 0,000 mm 1,0 UV-I 448 W/m 6,5 C 13,9 C 7,9 km/h (2 Bft) 0,00 %
09.09.2015 17:03 13,9 C 58 % 1021,9 hPa 0,0 l/m 1,8 km/h (1 Bft) SO 128 5 min 0,000 mm 1,0 UV-I 232 W/m 5,8 C 13,9 C 4,0 km/h (1 Bft) 0,00 %
09.09.2015 17:08 14,1 C 60 % 1021,9 hPa 0,0 l/m 4,0 km/h (1 Bft) S 172 0 min 0,000 mm 1,0 UV-I 198 W/m 6,5 C 14,1 C 4,0 km/h (1 Bft) 0,00 %
09.09.2015 17:13 14,2 C 60 % 1021,9 hPa 0,0 l/m 4,7 km/h (1 Bft) O 90 0 min 0,000 mm 1,0 UV-I 176 W/m 6,5 C 14,2 C 7,9 km/h (2 Bft) 0,00 %
09.09.2015 17:18 14,1 C 58 % 1021,9 hPa 0,0 l/m 4,0 km/h (1 Bft) NO 41 0 min 0,000 mm 1,0 UV-I 161 W/m 6,0 C 14,1 C 4,0 km/h (1 Bft) 0,00 %
09.09.2015 17:23 14,0 C 61 % 1021,7 hPa 0,0 l/m 4,3 km/h (1 Bft) O-NO 74 0 min 0,000 mm 1,0 UV-I 149 W/m 6,6 C 14,0 C 7,9 km/h (2 Bft) 0,00 %
09.09.2015 17:29 13,7 C 58 % 1021,7 hPa 0,0 l/m 1,8 km/h (1 Bft) O 88 0 min 0,000 mm 1,0 UV-I 143 W/m 5,6 C 13,7 C 7,9 km/h (2 Bft) 0,00 %
09.09.2015 17:34 13,4 C 60 % 1021,8 hPa 0,0 l/m 0,0 km/h (0 Bft) O-NO 61 0 min 0,000 mm 1,0 UV-I 129 W/m 5,8 C 13,4 C 0,0 km/h (0 Bft) 0,00 %
09.09.2015 17:39 13,3 C 61 % 1021,9 hPa 0,0 l/m 4,7 km/h (1 Bft) O-NO 66 0 min 0,000 mm 1,0 UV-I 119 W/m 5,9 C 13,3 C 7,9 km/h (2 Bft) 0,00 %
09.09.2015 17:44 13,2 C 62 % 1022,0 hPa 0,0 l/m 0,7 km/h (0 Bft) NO 46 0 min 0,000 mm 0,0 UV-I 104 W/m 6,1 C 13,2 C 4,0 km/h (1 Bft) 0,00 %
09.09.2015 17:49 13,2 C 63 % 1021,9 hPa 0,0 l/m 6,8 km/h (2 Bft) O 86 0 min 0,000 mm 0,0 UV-I 94 W/m 6,3 C 13,0 C 11,9 km/h (2 Bft) 0,00 %
09.09.2015 17:54 13,1 C 62 % 1022,0 hPa 0,0 l/m 2,2 km/h (1 Bft) SO 141 0 min 0,000 mm 0,0 UV-I 92 W/m 6,0 C 13,1 C 4,0 km/h (1 Bft) 0,00 %
09.09.2015 17:59 13,0 C 64 % 1022,0 hPa 0,0 l/m 2,2 km/h (1 Bft) SO 142 0 min 0,000 mm 0,0 UV-I 93 W/m 6,4 C 13,0 C 4,0 km/h (1 Bft) 0,00 %
09.09.2015 18:04 12,9 C 65 % 1022,0 hPa 0,0 l/m 0,4 km/h (0 Bft) O-NO 76 0 min 0,000 mm 0,0 UV-I 79 W/m 6,5 C 12,9 C 4,0 km/h (1 Bft) 0,00 %
09.09.2015 18:09 12,8 C 65 % 1022,1 hPa 0,0 l/m 1,4 km/h (1 Bft) O-SO 106 0 min 0,000 mm 0,0 UV-I 71 W/m 6,4 C 12,8 C 4,0 km/h (1 Bft) 0,00 %
09.09.2015 18:14 12,6 C 66 % 1021,7 hPa 0,0 l/m 0,4 km/h (0 Bft) NO 42 0 min 0,000 mm 0,0 UV-I 54 W/m 6,4 C 12,6 C 4,0 km/h (1 Bft) 0,00 %
09.09.2015 18:19 12,6 C 67 % 1022,0 hPa 0,0 l/m 0,0 km/h (0 Bft) O 94 0 min 0,000 mm 0,0 UV-I 44 W/m 6,6 C 12,6 C 0,0 km/h (0 Bft) 0,00 %
09.09.2015 18:24 12,5 C 67 % 1022,0 hPa 0,0 l/m 0,4 km/h (0 Bft) NO 44 0 min 0,000 mm 0,0 UV-I 48 W/m 6,5 C 12,5 C 4,0 km/h (1 Bft) 0,00 %
09.09.2015 18:29 12,4 C 67 % 1021,7 hPa 0,0 l/m 0,0 km/h (0 Bft) NO 41 0 min 0,000 mm 0,0 UV-I 56 W/m 6,4 C 12,4 C 0,0 km/h (0 Bft) 0,00 %
09.09.2015 18:34 12,4 C 69 % 1021,9 hPa 0,0 l/m 0,0 km/h (0 Bft) W-SW 256 5 min 0,000 mm 0,0 UV-I 113 W/m 6,9 C 12,4 C 0,0 km/h (0 Bft) 0,00 %
09.09.2015 18:39 12,4 C 69 % 1021,9 hPa 0,0 l/m 4,7 km/h (1 Bft) O-SO 109 0 min 0,000 mm 0,0 UV-I 45 W/m 6,9 C 12,4 C 7,9 km/h (2 Bft) 0,00 %
09.09.2015 18:44 12,4 C 70 % 1021,8 hPa 0,0 l/m 1,8 km/h (1 Bft) O-NO 63 0 min 0,000 mm 0,0 UV-I 29 W/m 7,1 C 12,4 C 4,0 km/h (1 Bft) 0,00 %
09.09.2015 18:49 12,3 C 71 % 1021,9 hPa 0,0 l/m 1,4 km/h (1 Bft) NO 52 0 min 0,000 mm 0,0 UV-I 29 W/m 7,2 C 12,3 C 4,0 km/h (1 Bft) 0,00 %
09.09.2015 18:54 12,3 C 72 % 1021,8 hPa 0,0 l/m 1,4 km/h (1 Bft) SO 125 0 min 0,000 mm 0,0 UV-I 36 W/m 7,4 C 12,3 C 4,0 km/h (1 Bft) 0,00 %
09.09.2015 18:59 12,2 C 73 % 1021,9 hPa 0,0 l/m 0,0 km/h (0 Bft) NO 54 0 min 0,000 mm 0,0 UV-I 32 W/m 7,5 C 12,2 C 0,0 km/h (0 Bft) 0,00 %
09.09.2015 19:04 12,2 C 74 % 1022,1 hPa 0,0 l/m 0,0 km/h (0 Bft) O-NO 61 5 min 0,000 mm 0,0 UV-I 62 W/m 7,7 C 12,2 C 0,0 km/h (0 Bft) 0,00 %
09.09.2015 19:09 12,1 C 74 % 1021,9 hPa 0,0 l/m 0,4 km/h (0 Bft) O-NO 72 5 min 0,000 mm 0,0 UV-I 25 W/m 7,6 C 12,1 C 4,0 km/h (1 Bft) 0,00 %
09.09.2015 19:14 12,1 C 75 % 1022,1 hPa 0,0 l/m 2,2 km/h (1 Bft) SO 124 5 min 0,000 mm 0,0 UV-I 18 W/m 7,8 C 12,1 C 7,9 km/h (2 Bft) 0,00 %
09.09.2015 19:19 12,0 C 77 % 1021,9 hPa 0,0 l/m 0,4 km/h (0 Bft) O-NO 63 0 min 0,000 mm 0,0 UV-I 7 W/m 8,1 C 12,0 C 4,0 km/h (1 Bft) 0,00 %
09.09.2015 19:24 11,8 C 78 % 1022,1 hPa 0,0 l/m 0,0 km/h (0 Bft) NO 52 0 min 0,000 mm 0,0 UV-I 3 W/m 8,1 C 11,8 C 0,0 km/h (0 Bft) 0,00 %
09.09.2015 19:29 11,7 C 78 % 1022,1 hPa 0,0 l/m 1,4 km/h (1 Bft) O-SO 110 0 min 0,000 mm 0,0 UV-I 0 W/m 8,0 C 11,7 C 4,0 km/h (1 Bft) 0,00 %
09.09.2015 19:34 11,5 C 78 % 1022,1 hPa 0,0 l/m 2,9 km/h (1 Bft) O-SO 102 0 min 0,000 mm 0,0 UV-I 0 W/m 7,8 C 11,5 C 4,0 km/h (1 Bft) 0,00 %
09.09.2015 19:39 11,3 C 78 % 1022,1 hPa 0,0 l/m 0,0 km/h (0 Bft) NO 45 0 min 0,000 mm 0,0 UV-I 0 W/m 7,6 C 11,3 C 0,0 km/h (0 Bft) 0,00 %
09.09.2015 19:44 11,2 C 78 % 1022,2 hPa 0,0 l/m 0,7 km/h (0 Bft) O 81 0 min 0,000 mm 0,0 UV-I 0 W/m 7,5 C 11,2 C 4,0 km/h (1 Bft) 0,00 %
09.09.2015 19:49 11,1 C 78 % 1022,2 hPa 0,0 l/m 4,7 km/h (1 Bft) O-SO 120 0 min 0,000 mm 0,0 UV-I 0 W/m 7,4 C 11,1 C 7,9 km/h (2 Bft) 0,00 %
09.09.2015 19:54 11,0 C 78 % 1022,2 hPa 0,0 l/m 2,2 km/h (1 Bft) O-NO 65 0 min 0,000 mm 0,0 UV-I 0 W/m 7,3 C 11,0 C 4,0 km/h (1 Bft) 0,00 %
09.09.2015 19:59 10,9 C 78 % 1022,3 hPa 0,0 l/m 4,3 km/h (1 Bft) SO 127 0 min 0,000 mm 0,0 UV-I 0 W/m 7,2 C 10,9 C 7,9 km/h (2 Bft) 0,00 %
09.09.2015 20:04 10,8 C 79 % 1022,3 hPa 0,0 l/m 4,0 km/h (1 Bft) O 91 0 min 0,000 mm 0,0 UV-I 0 W/m 7,3 C 10,8 C 7,9 km/h (2 Bft) 0,00 %
09.09.2015 20:09 10,7 C 79 % 1022,4 hPa 0,0 l/m 0,0 km/h (0 Bft) NO 47 0 min 0,000 mm 0,0 UV-I 0 W/m 7,2 C 10,7 C 0,0 km/h (0 Bft) 0,00 %
09.09.2015 20:14 10,6 C 79 % 1022,4 hPa 0,0 l/m 0,4 km/h (0 Bft) SO 142 0 min 0,000 mm 0,0 UV-I 0 W/m 7,1 C 10,6 C 4,0 km/h (1 Bft) 0,00 %
09.09.2015 20:19 10,5 C 79 % 1022,6 hPa 0,0 l/m 5,8 km/h (2 Bft) O-SO 105 0 min 0,000 mm 0,0 UV-I 0 W/m 7,0 C 10,5 C 7,9 km/h (2 Bft) 0,00 %
09.09.2015 20:24 10,4 C 80 % 1022,5 hPa 0,0 l/m 0,7 km/h (0 Bft) O-SO 114 0 min 0,000 mm 0,0 UV-I 0 W/m 7,1 C 10,4 C 4,0 km/h (1 Bft) 0,00 %
09.09.2015 20:29 10,3 C 81 % 1022,6 hPa 0,0 l/m 4,7 km/h (1 Bft) O-SO 108 0 min 0,000 mm 0,0 UV-I 0 W/m 7,2 C 10,3 C 7,9 km/h (2 Bft) 0,00 %
09.09.2015 20:34 10,1 C 81 % 1022,6 hPa 0,0 l/m 3,2 km/h (1 Bft) O 89 0 min 0,000 mm 0,0 UV-I 0 W/m 7,0 C 10,1 C 4,0 km/h (1 Bft) 0,00 %
09.09.2015 20:39 10,0 C 81 % 1022,7 hPa 0,0 l/m 0,7 km/h (0 Bft) O 83 0 min 0,000 mm 0,0 UV-I 0 W/m 6,9 C 10,0 C 4,0 km/h (1 Bft) 0,00 %
09.09.2015 20:44 10,0 C 81 % 1022,5 hPa 0,0 l/m 0,0 km/h (0 Bft) O-NO 59 0 min 0,000 mm 0,0 UV-I 0 W/m 6,9 C 10,0 C 0,0 km/h (0 Bft) 0,00 %
09.09.2015 20:49 10,0 C 81 % 1022,6 hPa 0,0 l/m 0,0 km/h (0 Bft) O-NO 61 0 min 0,000 mm 0,0 UV-I 0 W/m 6,9 C 10,0 C 0,0 km/h (0 Bft) 0,00 %
09.09.2015 20:54 10,1 C 81 % 1022,6 hPa 0,0 l/m 0,0 km/h (0 Bft) O-NO 76 0 min 0,000 mm 0,0 UV-I 0 W/m 7,0 C 10,1 C 0,0 km/h (0 Bft) 0,00 %
09.09.2015 20:59 10,0 C 81 % 1022,7 hPa 0,0 l/m 0,0 km/h (0 Bft) NO 50 0 min 0,000 mm 0,0 UV-I 0 W/m 6,9 C 10,0 C 0,0 km/h (0 Bft) 0,00 %
09.09.2015 21:04 10,0 C 82 % 1022,8 hPa 0,0 l/m 0,0 km/h (0 Bft) O-SO 107 0 min 0,000 mm 0,0 UV-I 0 W/m 7,1 C 10,0 C 0,0 km/h (0 Bft) 0,00 %
09.09.2015 21:09 9,9 C 83 % 1022,7 hPa 0,0 l/m 2,9 km/h (1 Bft) O-SO 102 0 min 0,000 mm 0,0 UV-I 0 W/m 7,2 C 9,9 C 7,9 km/h (2 Bft) 0,00 %
09.09.2015 21:14 9,9 C 83 % 1022,6 hPa 0,0 l/m 0,7 km/h (0 Bft) O-SO 106 0 min 0,000 mm 0,0 UV-I 0 W/m 7,2 C 9,9 C 4,0 km/h (1 Bft) 0,00 %
09.09.2015 21:19 9,8 C 83 % 1022,7 hPa 0,0 l/m 1,8 km/h (1 Bft) O 84 0 min 0,000 mm 0,0 UV-I 0 W/m 7,1 C 9,8 C 4,0 km/h (1 Bft) 0,00 %
09.09.2015 21:24 9,8 C 84 % 1022,5 hPa 0,0 l/m 0,0 km/h (0 Bft) O-SO 112 0 min 0,000 mm 0,0 UV-I 0 W/m 7,2 C 9,8 C 0,0 km/h (0 Bft) 0,00 %
09.09.2015 21:29 9,7 C 84 % 1022,6 hPa 0,0 l/m 2,2 km/h (1 Bft) O-SO 110 0 min 0,000 mm 0,0 UV-I 0 W/m 7,1 C 9,7 C 4,0 km/h (1 Bft) 0,00 %
09.09.2015 21:34 9,7 C 84 % 1022,6 hPa 0,0 l/m 0,0 km/h (0 Bft) NO 51 0 min 0,000 mm 0,0 UV-I 0 W/m 7,1 C 9,7 C 0,0 km/h (0 Bft) 0,00 %
09.09.2015 21:39 9,5 C 85 % 1022,4 hPa 0,0 l/m 0,4 km/h (0 Bft) O 81 0 min 0,000 mm 0,0 UV-I 0 W/m 7,1 C 9,5 C 4,0 km/h (1 Bft) 0,00 %
09.09.2015 21:44 9,4 C 86 % 1022,5 hPa 0,0 l/m 1,4 km/h (1 Bft) O-SO 113 0 min 0,000 mm 0,0 UV-I 0 W/m 7,2 C 9,4 C 4,0 km/h (1 Bft) 0,00 %
09.09.2015 21:49 9,2 C 87 % 1022,4 hPa 0,0 l/m 0,7 km/h (0 Bft) O-SO 118 0 min 0,000 mm 0,0 UV-I 0 W/m 7,2 C 9,2 C 4,0 km/h (1 Bft) 0,00 %
09.09.2015 21:54 9,1 C 87 % 1022,5 hPa 0,0 l/m 0,0 km/h (0 Bft) O 87 0 min 0,000 mm 0,0 UV-I 0 W/m 7,1 C 9,1 C 0,0 km/h (0 Bft) 0,00 %
09.09.2015 21:59 9,0 C 89 % 1022,5 hPa 0,0 l/m 0,0 km/h (0 Bft) NO 51 0 min 0,000 mm 0,0 UV-I 0 W/m 7,3 C 9,0 C 0,0 km/h (0 Bft) 0,00 %
09.09.2015 22:04 8,9 C 90 % 1022,6 hPa 0,0 l/m 0,0 km/h (0 Bft) NO 36 0 min 0,000 mm 0,0 UV-I 0 W/m 7,4 C 8,9 C 0,0 km/h (0 Bft) 0,00 %
09.09.2015 22:09 8,7 C 90 % 1022,5 hPa 0,0 l/m 0,0 km/h (0 Bft) O-NO 57 0 min 0,000 mm 0,0 UV-I 0 W/m 7,2 C 8,7 C 0,0 km/h (0 Bft) 0,00 %
09.09.2015 22:14 8,6 C 91 % 1022,3 hPa 0,0 l/m 0,0 km/h (0 Bft) NO 51 0 min 0,000 mm 0,0 UV-I 0 W/m 7,2 C 8,6 C 0,0 km/h (0 Bft) 0,00 %
09.09.2015 22:19 8,5 C 91 % 1022,3 hPa 0,0 l/m 0,0 km/h (0 Bft) NO 45 0 min 0,000 mm 0,0 UV-I 0 W/m 7,1 C 8,5 C 0,0 km/h (0 Bft) 0,00 %
09.09.2015 22:24 8,4 C 91 % 1022,5 hPa 0,0 l/m 0,0 km/h (0 Bft) O-SO 120 0 min 0,000 mm 0,0 UV-I 0 W/m 7,0 C 8,4 C 0,0 km/h (0 Bft) 0,00 %
09.09.2015 22:29 8,3 C 92 % 1022,6 hPa 0,0 l/m 0,0 km/h (0 Bft) O-NO 59 0 min 0,000 mm 0,0 UV-I 0 W/m 7,1 C 8,3 C 0,0 km/h (0 Bft) 0,00 %
09.09.2015 22:34 8,3 C 92 % 1022,4 hPa 0,0 l/m 0,0 km/h (0 Bft) O-SO 105 0 min 0,000 mm 0,0 UV-I 0 W/m 7,1 C 8,3 C 0,0 km/h (0 Bft) 0,00 %
09.09.2015 22:39 8,1 C 92 % 1022,5 hPa 0,0 l/m 0,0 km/h (0 Bft) O-NO 63 0 min 0,000 mm 0,0 UV-I 0 W/m 6,9 C 8,1 C 0,0 km/h (0 Bft) 0,00 %
09.09.2015 22:44 8,0 C 93 % 1022,5 hPa 0,0 l/m 0,0 km/h (0 Bft) O-NO 75 0 min 0,000 mm 0,0 UV-I 0 W/m 6,9 C 8,0 C 0,0 km/h (0 Bft) 0,00 %
09.09.2015 22:49 7,9 C 93 % 1022,5 hPa 0,0 l/m 0,0 km/h (0 Bft) O-NO 59 0 min 0,000 mm 0,0 UV-I 0 W/m 6,8 C 7,9 C 0,0 km/h (0 Bft) 0,00 %
09.09.2015 22:54 7,8 C 94 % 1022,5 hPa 0,0 l/m 0,0 km/h (0 Bft) O-NO 77 0 min 0,000 mm 0,0 UV-I 0 W/m 6,9 C 7,8 C 0,0 km/h (0 Bft) 0,00 %
09.09.2015 22:59 7,7 C 94 % 1022,4 hPa 0,0 l/m 0,0 km/h (0 Bft) O-NO 69 0 min 0,000 mm 0,0 UV-I 0 W/m 6,8 C 7,7 C 0,0 km/h (0 Bft) 0,00 %
09.09.2015 23:04 7,5 C 94 % 1022,5 hPa 0,0 l/m 0,0 km/h (0 Bft) O-NO 62 0 min 0,000 mm 0,0 UV-I 0 W/m 6,6 C 7,5 C 0,0 km/h (0 Bft) 0,00 %
09.09.2015 23:09 7,4 C 94 % 1022,4 hPa 0,0 l/m 0,0 km/h (0 Bft) NO 50 0 min 0,000 mm 0,0 UV-I 0 W/m 6,5 C 7,4 C 0,0 km/h (0 Bft) 0,00 %
09.09.2015 23:14 7,2 C 94 % 1022,4 hPa 0,0 l/m 0,0 km/h (0 Bft) O 83 0 min 0,000 mm 0,0 UV-I 0 W/m 6,3 C 7,2 C 0,0 km/h (0 Bft) 0,00 %
09.09.2015 23:19 7,2 C 95 % 1022,6 hPa 0,0 l/m 0,0 km/h (0 Bft) O-NO 66 0 min 0,000 mm 0,0 UV-I 0 W/m 6,5 C 7,2 C 0,0 km/h (0 Bft) 0,00 %
09.09.2015 23:24 7,2 C 95 % 1022,7 hPa 0,0 l/m 0,0 km/h (0 Bft) NO 40 0 min 0,000 mm 0,0 UV-I 0 W/m 6,5 C 7,2 C 0,0 km/h (0 Bft) 0,00 %
09.09.2015 23:29 7,2 C 95 % 1022,6 hPa 0,0 l/m 0,0 km/h (0 Bft) NO 50 0 min 0,000 mm 0,0 UV-I 0 W/m 6,5 C 7,2 C 0,0 km/h (0 Bft) 0,00 %
09.09.2015 23:34 7,2 C 96 % 1022,5 hPa 0,0 l/m 0,0 km/h (0 Bft) NO 52 0 min 0,000 mm 0,0 UV-I 0 W/m 6,6 C 7,2 C 0,0 km/h (0 Bft) 0,00 %
09.09.2015 23:39 7,1 C 97 % 1022,7 hPa 0,0 l/m 0,0 km/h (0 Bft) O-NO 74 0 min 0,000 mm 0,0 UV-I 0 W/m 6,7 C 7,1 C 0,0 km/h (0 Bft) 0,00 %
09.09.2015 23:44 6,9 C 97 % 1022,6 hPa 0,0 l/m 0,0 km/h (0 Bft) NO 49 0 min 0,000 mm 0,0 UV-I 0 W/m 6,5 C 6,9 C 0,0 km/h (0 Bft) 0,00 %
09.09.2015 23:49 6,8 C 97 % 1022,6 hPa 0,0 l/m 0,0 km/h (0 Bft) NO 51 0 min 0,000 mm 0,0 UV-I 0 W/m 6,4 C 6,8 C 0,0 km/h (0 Bft) 0,00 %
09.09.2015 23:54 6,6 C 97 % 1022,6 hPa 0,0 l/m 0,0 km/h (0 Bft) O-NO 71 0 min 0,000 mm 0,0 UV-I 0 W/m 6,2 C 6,6 C 0,0 km/h (0 Bft) 0,00 %
09.09.2015 23:59 6,5 C 97 % 1022,6 hPa 0,0 l/m 0,0 km/h (0 Bft) NO 54 0 min 0,000 mm 0,0 UV-I 0 W/m 6,1 C 6,5 C 0,0 km/h (0 Bft) 0,00 %
_ Min-Zeit 03:33 12:58 08:48 - 00:02 - - - - - - 03:33 03:33 00:02 00:02
Minimum _ 5,3 C 47 % 1020,0 hPa - 0,0 km/h (0 Bft) - - - - - - 5,0 C 5,3 C 0,0 km/h (0 Bft) 0,00 %
_ Max-Zeit 12:58 05:53 21:04 00:02 15:48 - - 10:48 00:02 12:08 12:08 08:33 12:58 15:48 00:02
Maximum _ 16,9 C 99 % 1022,8 hPa 0,0 l/m 13,3 km/h
O-NO (3 Bft)
- - 5 min 0,000 mm 3,0 UV-I 824 W/m 9,4 C 16,9 C 19,8 km/h
O-NO (3 Bft)
0,00 %
Durchschnitt _ 10,4 C 80 % 1021,8 hPa #0,0 l/m 1,4 km/h (1 Bft) O-SO - #2:15 h #0,000 mm 1,3 UV-I 227 W/m 6,7 C 10,3 C 2,6 km/h (1 Bft) 0,00 %